Starlink 30215

operational
NORAD ID: 57445 Int'l Des: 2023-105 Owner: SPXS Country: US Constellation: starlink
LEOCIRCULAR

Starlink 30215について

説明を読み込み中...

リアルタイム位置

3D地球を読み込み中...

次回通過

高度履歴

Altitude vs Time

uPlot chart will show altitude changes over time

軌道要素

1 57445U 23105R 25302.93924288 .00001765 00000-0 14559-3 0 9999
2 57445 43.0044 251.9988 0001608 291.6749 68.3922 15.02559220125736
Epoch: Oct 29, 2025 • Age: 29 hours

現在のステータス

高度 557.8 km
速度 7.59 km/s
衛星直下点 12.74°N, 169.6°E
打ち上げ日 Jul 24, 2023
運用期間 2.2 years
タイプ internet

技術仕様

分類 Payload
質量 730.00 kg
乾燥質量 700.00 kg
総質量 730.00 kg
長さ 0.30 m
直径 4.10 m
スパン 29.00 m
形状 Box + pan
製造者 SPXS
バスタイプ Starlink V2M
フェーズステータス In Orbit
所有者/国 SPXS/US

大規模コンステレーション

Loading constellations...